Terug naar catalogus

STARLINK-34121

ActiefCommunicatieVLEO
NORAD 63961·PAYLOAD·🇺🇸 United States

Gelanceerd May 13, 2025 vanaf Cape Canaveral Space Force Station

Loading…

Volgende Passages (komende 24 uur)

TLE

VersSource: CelesTrak SupGP

Epoch: Sep 14, 2026, 20:39 UTC

1 63961C 25099K   26257.86090278  .00010412  00000+0  37705-3 0  2571
2 63961  42.9993 187.8963 0001158 262.5225 231.7915 15.27580419    15

Volg STARLINK-34121 in realtime met AllMySat

Download on the App Store